Content
SEND FEEDBACK

Daily
Averages
Monthly
Summary
United States of America

MERIZO, GUAM


Home > North America > United States > Guam
Elevation: 10 feet     Latitude: 13 14N     Longitude: 144 39E

WEATHER
 
SELECT A DAY
Number of Records: 341,964;   Date Range: 1/1/95 - 7/26/14
 
SHARE

PRINT THIS DATA

[ ← Previous Day ]
WEATHER ALMANAC - OCTOBER 15, 2013
[ Next Day → ]
[ °C ]   °F
Weather ElementAverageHighLow
Temperature78.7 °F84.6 °F (9:58 am)73.4 °F (9:08 pm)
Dewpoint76.2 °F78.8 °F (3:40 pm)71.6 °F (9:08 pm)
Humidity92.2 %100 % (4:03 pm)77 % (9:58 am)
Barometer29.83 in29.88 in (8:58 am)29.78 in (2:58 pm)
Wind Speed12.2 mph20.7 mph (3:47 pm)
Wind Gust26.5 mph (11:56 pm)
Weather ElementAverage
Visibility8.8 mi
Wind DirectionNW (311.6 °)

Weather ElementTotal
Precipitation0.20 in
Cooling Degree Days14 (Base 65)
Growing Degree Days29 (Base 50)
Averaged from 51 records on October 15, 2013
WEATHER CONDITIONS BREAKOUT
WIND DIRECTION BREAKOUT
WEATHER BY HOUR - OCTOBER 15, 2013
[ °C ]   °F
Local TimeTemperatureDewpointHumidityBarometerVisibilityWind DirectionWind SpeedGust SpeedPrecipitationEventsConditions
1:58 AM76.1 °F75.2 °F97 %29.86 in10.0 miNW (310°)2.3 mphClear
2:58 AM77.0 °F76.1 °F97 %29.83 in10.0 miNW (320°)3.5 mphPartly Cloudy
3:58 AM75.4 °F74.7 °F98 %29.83 in10.0 miNW (310°)1.2 mphClear
4:58 AM75.2 °F74.7 °F98 %29.83 in10.0 miNW (310°)3.5 mphClear
5:58 AM75.9 °F75.2 °F98 %29.83 in10.0 miNW (310°)4.6 mphClear
6:58 AM77.9 °F77.0 °F97 %29.86 in10.0 miNW (320°)5.8 mphClear
7:58 AM79.9 °F76.1 °F88 %29.86 in10.0 miNNW (330°)6.9 mphClear
8:58 AM82.8 °F76.5 °F81 %29.88 in10.0 miNNW (340°)8.1 mphClear
9:58 AM84.6 °F76.5 °F77 %29.87 in10.0 miNNW (340°)11.5 mphClear
10:58 AM84.4 °F76.8 °F78 %29.86 in10.0 miNorth (350°)11.5 mphClear
11:58 AM84.6 °F77.5 °F79 %29.83 in10.0 miNNW (340°)11.5 mphPartly Cloudy
12:58 PM83.7 °F76.6 °F79 %29.81 in10.0 miNorth (350°)15.0 mphMostly Cloudy
1:58 PM84.0 °F77.0 °F79 %29.79 in10.0 miNNW (330°)11.5 mphMostly Cloudy
2:18 PM84.2 °F77.0 °F79 %29.81 in10.0 miNW (320°)12.7 mphMostly Cloudy
2:23 PM84.2 °F77.0 °F79 %29.82 in10.0 miNW (320°)13.8 mphScattered Clouds
2:58 PM83.1 °F76.8 °F81 %29.78 in10.0 miNNW (330°)12.7 mphScattered Clouds
3:01 PM82.4 °F77.0 °F84 %29.81 in10.0 miNW (320°)12.7 mphRainLight Rain
3:40 PM80.6 °F78.8 °F94 %29.82 in10.0 miNW (320°)10.4 mphScattered Clouds
3:42 PM80.6 °F78.8 °F94 %29.83 in9.0 miNNW (330°)11.5 mphRainLight Rain
3:47 PM78.8 °F77.0 °F94 %29.83 in1.2 miNorth (350°)20.7 mph24.2 mphRainHeavy Rain
3:52 PM78.8 °F77.0 °F94 %29.83 in1.0 miNorth (350°)13.8 mph24.2 mphRainHeavy Rain
3:57 PM78.8 °F77.0 °F94 %29.83 in2.0 miNorth (10°)9.2 mphRainLight Rain
3:58 PM78.8 °F77.0 °F94 %29.81 in2.0 miNorth (10°)9.2 mph0.14 inRainLight Rain
4:03 PM77.0 °F77.0 °F100 %29.84 in6.0 miNorth (360°)8.1 mphRainLight Rain
4:08 PM77.0 °F77.0 °F100 %29.84 in8.0 miNorth (350°)17.3 mph20.7 mphRainLight Rain
4:13 PM77.0 °F77.0 °F100 %29.84 in5.0 miNNW (330°)11.5 mph20.7 mphRainRain
4:18 PM77.0 °F75.2 °F94 %29.84 in4.0 miNNW (340°)12.7 mph20.7 mphRainLight Rain
4:28 PM75.2 °F73.4 °F94 %29.83 in9.0 miNNW (330°)11.5 mphRainRain
4:33 PM75.2 °F73.4 °F94 %29.84 in10.0 miNW (320°)13.8 mphRainLight Rain
4:53 PM75.2 °F75.2 °F100 %29.84 in6.0 miNW (320°)12.7 mphRainRain
4:58 PM75.2 °F73.4 °F94 %29.81 in8.0 miNW (320°)10.4 mph0.05 inRainLight Rain
5:08 PM75.2 °F73.4 °F94 %29.84 in10.0 miNNW (330°)9.2 mphScattered Clouds
5:58 PM75.9 °F75.0 °F97 %29.81 in10.0 miNW (310°)11.5 mph0.00 inClear
6:58 PM76.5 °F75.9 °F98 %29.79 in10.0 miNW (310°)13.8 mphPartly Cloudy
7:58 PM76.5 °F74.8 °F95 %29.81 in10.0 miNW (310°)12.7 mph0.01 inPartly Cloudy
8:58 PM76.6 °F75.7 °F97 %29.81 in10.0 miNW (310°)12.7 mphPartly Cloudy
9:08 PM73.4 °F71.6 °F94 %29.83 in10.0 miNW (320°)15.0 mphMostly Cloudy
9:18 PM75.2 °F73.4 °F94 %29.83 in10.0 miNW (310°)15.0 mphScattered Clouds
9:58 PM77.7 °F76.5 °F96 %29.81 in10.0 miNW (310°)12.7 mphScattered Clouds
10:28 PM78.8 °F77.0 °F94 %29.83 in10.0 miNW (310°)12.7 mphRainLight Rain
10:33 PM78.8 °F77.0 °F94 %29.83 in10.0 miNW (310°)16.1 mphRainLight Rain
10:41 PM78.8 °F77.0 °F94 %29.83 in10.0 miNW (320°)16.1 mphMostly Cloudy
10:46 PM78.8 °F77.0 °F94 %29.83 in10.0 miNW (320°)15.0 mphMostly Cloudy
10:51 PM78.8 °F77.0 °F94 %29.83 in10.0 miNW (320°)17.3 mphMostly Cloudy
10:58 PM78.1 °F76.3 °F94 %29.81 in10.0 miNW (310°)16.1 mph0.00 inMostly Cloudy
11:34 PM78.8 °F77.0 °F94 %29.81 in10.0 miNW (310°)17.3 mphLight Drizzle
11:39 PM78.8 °F77.0 °F94 %29.81 in10.0 miNW (320°)17.3 mphRainLight Rain
11:46 PM78.8 °F77.0 °F94 %29.82 in10.0 miNW (310°)17.3 mphScattered Clouds
11:51 PM78.8 °F77.0 °F94 %29.81 in10.0 miNW (320°)15.0 mphMostly Cloudy
11:56 PM78.8 °F77.0 °F94 %29.81 in10.0 miNW (320°)17.3 mph26.5 mphMostly Cloudy
11:58 PM79.2 °F77.4 °F94 %29.78 in10.0 miNW (320°)18.4 mph26.5 mph0.00 inMostly Cloudy
Hourly data recorded from PGUA, located miles away from Merizo, Guam







STORIES FROM OUR PARTNERS